Temp
-12 -12 -13 -13 -13 -13 -14 -14 -14 -14 -15 -15 -15 -15 -15 -15 -15 -15 -15 -16 -16 -17 -17 -17 -18 -18 -19
-12 -13 -13 -13 -13 -13 -14 -14 -14 -15 -15 -15 -15 -15 -15 -15 -15 -15 -16 -16 -16 -17 -17 -18 -18 -19 -19
-12 -13 -13 -13 -13 -14 -14 -15 -15 -15 -15 -15 -15 -15 -15 -16 -16 -16 -16 -17 -17 -17 -18 -18 -19 -19 -20
-13 -13 -13 -14 -13 -14 -15 -15 -16 -16 -15 -15 -15 -15 -16 -16 -16 -16 -17 -17 -17 -18 -18 -19 -19 -20 -20
-13 -13 -14 -13 -14 -14 -15 -15 -15 -15 -16 -16 -16 -16 -17 -17 -17 -17 -17 -17 -18 -18 -19 -19 -20 -20 -21
-13 -14 -13 -14 -14 -15 -15 -15 -15 -15 -16 -15 -16 -16 -16 -17 -17 -18 -18 -18 -18 -19 -19 -20 -20 -21 -21
-13 -13 -13 -14 -15 -15 -15 -15 -15 -15 -16 -16 -17 -17 -17 -17 -17 -18 -18 -19 -19 -19 -19 -20 -21 -21 -22
-13 -13 -14 -14 -15 -15 -15 -15 -15 -15 -16 -17 -17 -17 -16 -18 -18 -19 -19 -19 -19 -20 -20 -21 -22 -22 -22
-13 -14 -14 -15 -15 -15 -14 -15 -15 -16 -17 -17 -17 -16 -17 -18 -18 -19 -19 -19 -20 -20 -21 -22 -22 -22 -22
-14 -14 -14 -14 -15 -14 -14 -15 -16 -16 -17 -17 -17 -17 -18 -19 -19 -19 -19 -19 -20 -21 -22 -22 -22 -22 -22
-15 -14 -14 -15 -14 -14 -14 -16 -16 -17 -17 -17 -17 -18 -18 -19 -19 -19 -20 -20 -21 -21 -22 -22 -22 -23 -22
-14 -14 -14 -14 -14 -14 -15 -16 -17 -18 -18 -17 -18 -18 -19 -19 -19 -19 -20 -21 -21 -22 -23 -23 -23 -23 -23
-14 -14 -14 -14 -15 -15 -15 -16 -18 -18 -17 -18 -18 -19 -19 -20 -20 -20 -21 -21 -22 -23 -23 -23 -23 -23 -23
-14 -14 -14 -15 -15 -15 -16 -17 -18 -17 -17 -18 -18 -19 -20 -20 -20 -21 -21 -22 -22 -23 -23 -23 -23 -23 -23
-14 -14 -14 -15 -15 -15 -17 -18 -18 -17 -18 -19 -19 -20 -20 -20 -20 -21 -22 -22 -23 -23 -23 -23 -23 -24 -24
-14 -14 -15 -15 -16 -17 -17 -18 -17 -18 -18 -19 -20 -20 -20 -20 -21 -21 -22 -23 -23 -23 -23 -23 -24 -24 -24
-14 -15 -15 -16 -17 -17 -17 -18 -18 -18 -19 -19 -20 -21 -21 -21 -21 -22 -22 -23 -23 -23 -23 -24 -24 -24 -24
Height
5831 5830 5830 5829 5827 5825 5823 5821 5817 5814 5810 5806 5803 5797 5792 5787 5781 5774 5767 5759 5749 5740 5729 5719 5708 5696 5687
5825 5824 5824 5823 5821 5819 5817 5815 5811 5808 5804 5801 5796 5791 5785 5780 5774 5766 5760 5751 5742 5731 5720 5712 5700 5688 5677
5819 5818 5817 5816 5815 5813 5811 5808 5805 5801 5798 5795 5790 5784 5778 5773 5766 5759 5751 5742 5734 5724 5714 5702 5691 5680 5669
5812 5812 5811 5810 5809 5806 5804 5801 5798 5794 5791 5787 5782 5777 5771 5766 5758 5752 5744 5735 5725 5715 5704 5694 5683 5672 5660
5806 5805 5804 5803 5801 5800 5797 5794 5791 5787 5784 5779 5775 5770 5765 5758 5751 5743 5735 5726 5717 5706 5696 5685 5674 5663 5651
5798 5797 5796 5795 5795 5793 5790 5788 5784 5780 5776 5772 5767 5762 5757 5751 5742 5734 5726 5718 5709 5698 5687 5677 5666 5655 5643
5790 5790 5790 5789 5787 5785 5783 5780 5776 5772 5768 5764 5758 5754 5749 5742 5734 5727 5719 5710 5700 5691 5681 5670 5659 5646 5634
5783 5783 5783 5781 5779 5777 5774 5771 5769 5764 5760 5755 5751 5747 5740 5734 5727 5719 5711 5702 5692 5684 5674 5664 5652 5640 5628
5774 5775 5774 5773 5771 5769 5766 5763 5760 5756 5751 5747 5743 5739 5732 5725 5717 5710 5703 5694 5685 5675 5666 5656 5646 5634 5620
5766 5766 5764 5763 5761 5759 5756 5754 5750 5747 5743 5740 5735 5730 5724 5716 5709 5701 5694 5685 5676 5666 5656 5647 5637 5626 5613
5757 5756 5755 5754 5753 5751 5747 5744 5741 5738 5734 5731 5726 5719 5714 5708 5700 5693 5685 5676 5667 5657 5647 5637 5626 5616 5604
5746 5746 5746 5745 5744 5742 5737 5734 5732 5730 5727 5722 5716 5711 5705 5699 5692 5684 5676 5667 5658 5649 5640 5630 5618 5604 5591
5736 5736 5736 5735 5734 5731 5728 5726 5725 5722 5717 5713 5707 5702 5697 5690 5683 5675 5667 5658 5649 5641 5631 5623 5613 5600 5588
5727 5726 5725 5724 5722 5720 5719 5717 5716 5713 5709 5704 5699 5693 5688 5682 5675 5667 5660 5652 5643 5634 5624 5614 5603 5589 5577
5717 5714 5713 5713 5711 5709 5710 5710 5708 5704 5700 5695 5690 5685 5679 5673 5666 5659 5651 5644 5637 5629 5618 5604 5593 5583 5569
5704 5703 5703 5702 5702 5703 5703 5702 5699 5695 5691 5686 5680 5677 5671 5665 5659 5652 5645 5637 5630 5621 5611 5601 5587 5575 5562
5694 5694 5695 5695 5695 5695 5696 5693 5690 5686 5681 5677 5673 5668 5662 5657 5651 5644 5637 5630 5622 5613 5604 5594 5583 5570 5558
Wind_Speed
27 29 29 29 29 31 32 32 33 36 37 39 40 44 43 44 48 53 58 59 64 66 68 71 68 70 71
30 31 31 30 31 34 34 33 36 39 40 40 42 45 43 47 50 56 57 62 66 68 70 71 68 71 70
33 33 32 32 33 35 35 37 40 41 41 41 43 45 46 47 51 56 60 65 70 68 70 67 69 71 69
34 34 33 33 36 38 37 39 40 41 41 42 43 48 49 50 52 57 61 68 68 68 67 68 70 68 69
35 34 34 34 37 38 38 39 40 40 41 43 46 48 48 51 54 58 61 66 67 67 66 68 67 68 68
37 37 37 36 37 37 39 37 39 40 43 45 47 47 48 52 57 56 62 64 64 64 66 66 66 67 68
40 38 37 36 37 40 38 39 42 41 44 44 44 46 49 54 55 59 61 62 62 64 65 65 65 65 68
40 38 39 37 38 38 40 41 44 46 42 42 45 48 53 54 57 60 61 61 63 64 64 63 62 65 71
40 40 40 39 39 39 43 45 46 43 41 44 48 51 52 54 57 58 59 62 62 63 63 60 62 67 73
44 42 40 40 40 41 46 48 44 41 42 46 47 51 51 54 55 55 58 61 61 61 59 59 63 69 74
46 38 40 39 40 43 46 46 43 39 44 45 47 49 52 53 54 56 58 59 58 59 57 61 66 71 77
49 44 41 39 37 47 49 40 40 39 41 46 49 50 52 52 53 56 57 56 58 56 57 61 67 75 81
49 47 46 42 48 50 45 39 32 42 47 49 49 51 51 52 54 54 53 54 54 54 57 63 69 75 79
49 47 49 52 50 48 43 32 36 43 48 48 51 50 51 51 52 51 52 53 52 54 58 65 71 76 79
49 56 57 56 47 43 38 33 41 46 47 49 49 49 49 49 50 50 50 51 50 53 59 66 72 75 79
52 49 49 44 40 34 32 38 45 46 50 50 48 48 47 49 49 48 50 49 50 53 59 65 71 75 78
45 39 36 34 29 31 37 42 44 49 49 47 45 47 47 47 48 47 48 47 50 54 60 65 70 74 76
Wind_Direction
270 275 280 286 292 292 295 298 300 305 309 310 314 318 317 314 315 319 318 319 321 326 331 331 330 331 330
268 274 282 287 290 291 294 297 300 304 306 309 313 317 314 313 316 317 319 322 323 328 329 329 329 329 328
268 275 281 286 290 291 294 297 302 303 306 309 311 315 310 313 314 316 319 320 324 327 328 328 328 328 328
270 275 282 286 288 291 294 298 300 301 304 306 308 312 311 310 313 315 317 322 325 326 326 327 328 327 329
271 275 279 283 287 293 299 300 301 300 302 304 307 309 308 309 313 315 319 322 324 325 326 327 326 329 330
269 271 276 281 288 295 295 299 297 298 301 303 305 306 308 309 313 315 319 323 325 325 326 325 328 330 330
266 272 277 282 287 290 292 292 294 295 302 302 302 302 305 309 313 318 321 323 323 324 324 326 330 329 330
268 272 277 282 284 288 286 289 294 295 298 298 296 298 303 310 315 320 321 322 323 323 323 328 329 329 330
270 273 275 279 281 283 284 290 296 292 295 290 293 301 306 311 318 320 321 321 322 321 326 328 327 329 332
269 270 274 274 275 278 281 291 290 288 285 287 295 301 307 314 317 320 320 322 321 324 326 326 327 331 334
269 270 269 274 277 279 297 288 284 281 284 292 297 303 310 314 317 319 320 320 322 325 325 326 331 333 335
270 272 269 274 284 289 288 284 277 284 290 293 299 308 311 314 316 317 320 322 324 324 324 329 332 336 338
272 276 278 282 286 287 282 280 285 286 288 294 304 308 310 314 314 317 320 323 324 322 325 329 334 337 340
277 279 284 279 281 281 275 269 280 283 293 300 305 305 310 312 315 319 322 323 321 322 327 331 336 339 342
274 270 272 276 273 270 263 274 277 287 298 304 302 306 309 311 316 320 321 320 319 322 328 335 338 341 343
268 271 270 266 264 262 272 276 287 295 300 300 303 305 308 313 317 319 320 317 317 323 329 335 339 341 344
268 267 265 260 264 268 276 282 289 296 300 300 304 305 310 313 316 317 316 315 319 325 330 336 339 341 343